STARLINK-30259 (57521 NORAD) Tracking and Keplerian Element Data

This shows tracking and keplerian element data for the satellite.

Feedback or suggestion? Click here.




ElementValue
Catalog57521
NameSTARLINK-30259
Epoch Orbit412
Epoch Day239.16667824
Epoch Year2023
RAAN359.6002
Inclination42.9994
Eccentricity0.0001464
Argument of Perigee248.6118
Mean Anonmoly105.9141
Mean Motion15.5470765
Decay Rate-0.01619801
L11 57521U 23115A 23239.16667824 -.01619801 00000+0 -26438-1 0 9992
L22 57521 42.9994 359.6002 0001464 248.6118 105.9141 15.54707650 4127



Live tracking and technical data element details for STARLINK-30259 (NORAD 57521). STARLINK-30259 can be tracked NOW for your location showing map with azimuth and elevation plus other details from your city location.







IsCatalogInMostPopularTable: catalog: 57521, numindb: 7
Update: records affected: 1



GetName: 57521 STARLINK-30259

Hit Count: updated at: Tue, 26 Sep 2023 13:28:25 GMT